Change the Weather History Date:

Saturday, March 31, 2012

  Actual Average Record
Temperature  
Mean Temperature 50 °F -  
Max Temperature 57 °F 48 °F 76 °F (1963)
Min Temperature 42 °F 26 °F 7 °F (1954)
Degree Days  
Heating Degree Days 16    
Growing Degree Days 0 (Base 50)    
Moisture  
Dew Point 44 °F    
Average Humidity 87    
Maximum Humidity 93    
Minimum Humidity 67    
Precipitation  
Precipitation 0.00 in - - ()
Sea Level Pressure  
Sea Level Pressure 29.74 in    
Wind  
Wind Speed 10 mph (SE)    
Max Wind Speed 20 mph    
Max Gust Speed 22 mph    
Visibility 3 miles    
Events Fog    
Averages and records for this station are not official NWS values.
T = Trace of Precipitation, MM = Missing Value Source: NWS Daily Summary

Daily Weather History Graph

Daily Weather History Graph

Search for Another Location

Airport or City:

Trip Planner

Search our weather history database for the weather conditions in past years. The results will help you decide how hot, cold, wet, or windy it might be!

Date:

Astronomy

Mar. 31, 2012 Rise Set
Actual Time 7:02 AM CDT 7:48 PM CDT
Civil Twilight 6:32 AM CDT 8:19 PM CDT
Nautical Twilight 5:56 AM CDT 8:54 PM CDT
Astronomical Twilight 5:19 AM CDT 9:32 PM CDT
Moon 12:59 PM CDT (3/31) 3:18 AM CDT (3/31)
Length of Visible Light 13h 46m
Length of Day
12h 46m
First Quarter, 59% of the Moon is Illuminated
Mar 31
First Quarter
Apr 6
Full
Apr 13
Last Quarter
Apr 21
New
Apr 29
First Quarter

Hourly Weather History & Observations

Time (CDT) Temp. Windchill Dew Point Humidity Pressure Visibility Wind Dir Wind Speed Gust Speed Precip Events Conditions
12:14 AM 44.6 °F 39.2 °F 41.0 °F 87% 29.79 in 5.0 mi ESE 10.4 mph - N/A   Clear
12:33 AM 44.6 °F 39.7 °F 41.0 °F 87% 29.79 in 4.0 mi ESE 9.2 mph - N/A   Clear
12:53 AM 44.6 °F 39.2 °F 41.0 °F 87% 29.80 in 3.0 mi ESE 10.4 mph - N/A   Clear
1:33 AM 42.8 °F 37.5 °F 41.0 °F 93% 29.80 in 2.5 mi ESE 9.2 mph - N/A   Clear
1:53 AM 42.8 °F 37.5 °F 39.2 °F 87% 29.79 in 2.5 mi ESE 9.2 mph - N/A   Clear
2:13 AM 42.8 °F 37.5 °F 39.2 °F 87% 29.79 in 2.5 mi ESE 9.2 mph - N/A   Clear
2:33 AM 42.8 °F 37.5 °F 39.2 °F 87% 29.79 in 2.5 mi ESE 9.2 mph - N/A   Clear
2:53 AM 42.8 °F 37.0 °F 39.2 °F 87% 29.79 in 2.5 mi ESE 10.4 mph - N/A   Clear
3:14 AM 42.8 °F 37.0 °F 39.2 °F 87% 29.79 in 3.0 mi East 10.4 mph - N/A   Clear
3:33 AM 42.8 °F 37.0 °F 39.2 °F 87% 29.79 in 3.0 mi ESE 10.4 mph - N/A   Clear
3:53 AM 42.8 °F 36.6 °F 39.2 °F 87% 29.77 in 2.5 mi ESE 11.5 mph - N/A   Clear
4:13 AM 42.8 °F 35.8 °F 39.2 °F 87% 29.75 in 3.0 mi ESE 13.8 mph - N/A   Clear
4:34 AM 42.8 °F 35.8 °F 39.2 °F 87% 29.75 in 2.5 mi ESE 13.8 mph - N/A   Scattered Clouds
4:53 AM 42.8 °F 36.6 °F 39.2 °F 87% 29.73 in 2.5 mi SE 11.5 mph 18.4 mph N/A   Mostly Cloudy
5:13 AM 42.8 °F 38.0 °F 41.0 °F 93% 29.74 in 3.0 mi SE 8.1 mph - N/A   Overcast
5:34 AM 44.6 °F 40.2 °F 41.0 °F 87% 29.75 in 3.0 mi SE 8.1 mph - N/A   Overcast
5:53 AM 44.6 °F 40.2 °F 41.0 °F 87% 29.76 in 3.0 mi ESE 8.1 mph - N/A   Mostly Cloudy
6:14 AM 44.6 °F 40.2 °F 41.0 °F 87% 29.76 in 3.0 mi SE 8.1 mph - N/A   Mostly Cloudy
6:33 AM 44.6 °F 37.8 °F 42.8 °F 93% 29.75 in 3.0 mi SE 15.0 mph - N/A   Overcast
6:53 AM 44.6 °F 39.7 °F 42.8 °F 93% 29.76 in 3.0 mi ESE 9.2 mph - N/A   Overcast
7:13 AM 44.6 °F 40.2 °F 42.8 °F 93% 29.77 in 3.0 mi SE 8.1 mph - N/A   Overcast
7:34 AM 44.6 °F 38.1 °F 42.8 °F 93% 29.77 in 1.2 mi SSE 13.8 mph - N/A   Overcast
7:53 AM 44.6 °F 38.1 °F 42.8 °F 93% 29.76 in 0.2 mi SSE 13.8 mph 20.7 mph N/A Fog Fog
8:14 AM 44.6 °F 37.4 °F 42.8 °F 93% 29.77 in 0.2 mi SE 16.1 mph 20.7 mph N/A Fog Fog
8:34 AM 44.6 °F 37.2 °F 42.8 °F 93% 29.76 in 0.2 mi SE 17.3 mph - N/A Fog Fog
8:53 AM 44.6 °F 38.1 °F 42.8 °F 93% 29.76 in 0.2 mi SE 13.8 mph - N/A Fog Fog
9:13 AM 44.6 °F 38.1 °F 42.8 °F 93% 29.75 in 0.2 mi SE 13.8 mph - N/A Fog Fog
9:53 AM 44.6 °F 36.9 °F 42.8 °F 93% 29.74 in 0.2 mi SE 18.4 mph - N/A Fog Fog
10:14 AM 44.6 °F 40.2 °F 42.8 °F 93% 29.77 in 0.2 mi SSE 8.1 mph - N/A Fog Fog
10:33 AM 46.4 °F 41.1 °F 42.8 °F 87% 29.77 in 0.2 mi SE 11.5 mph - N/A Fog Fog
10:53 AM 46.4 °F 40.7 °F 44.6 °F 93% 29.76 in 0.2 mi SE 12.7 mph - N/A Fog Fog
11:13 AM 46.4 °F 40.4 °F 44.6 °F 93% 29.74 in 0.5 mi SE 13.8 mph - N/A Fog Fog
11:33 AM 46.4 °F 39.0 °F 44.6 °F 93% 29.73 in 0.5 mi SE 19.6 mph - N/A Fog Fog
11:53 AM 46.4 °F 41.1 °F 44.6 °F 93% 29.76 in 0.8 mi SE 11.5 mph - N/A   Overcast
12:14 PM 46.4 °F 39.8 °F 44.6 °F 93% 29.75 in 1.0 mi SSE 16.1 mph - N/A   Overcast
12:33 PM 46.4 °F 40.1 °F 44.6 °F 93% 29.75 in 1.0 mi SSE 15.0 mph 19.6 mph N/A   Overcast
12:53 PM 48.2 °F - 46.4 °F 93% 29.74 in 1.2 mi South 17.3 mph - N/A   Overcast
1:14 PM 48.2 °F - 46.4 °F 93% 29.73 in 1.8 mi SSE 15.0 mph 19.6 mph N/A   Overcast
1:34 PM 48.2 °F - 46.4 °F 93% 29.73 in 2.5 mi SSE 12.7 mph - N/A   Overcast
1:53 PM 50.0 °F - 46.4 °F 87% 29.71 in 2.5 mi SE 18.4 mph 21.9 mph N/A   Overcast
2:13 PM 51.8 °F - 46.4 °F 82% 29.71 in 3.0 mi SSE 13.8 mph - N/A   Haze
2:33 PM 51.8 °F - 46.4 °F 82% 29.71 in 4.0 mi SSE 13.8 mph 18.4 mph N/A   Haze
2:53 PM 53.6 °F - 46.4 °F 77% 29.70 in 4.0 mi SSE 15.0 mph - N/A   Haze
3:13 PM 53.6 °F - 46.4 °F 77% 29.71 in 4.0 mi SE 6.9 mph - N/A   Haze
3:33 PM 53.6 °F - 46.4 °F 77% 29.71 in 5.0 mi ESE 3.5 mph - N/A   Haze
3:53 PM 55.4 °F - 46.4 °F 72% 29.71 in 5.0 mi SE 3.5 mph - N/A   Haze
4:14 PM 53.6 °F - 46.4 °F 77% 29.71 in 5.0 mi SE 5.8 mph - N/A   Haze
4:33 PM 55.4 °F - 46.4 °F 72% 29.71 in 5.0 mi SSE 4.6 mph - N/A   Haze
4:53 PM 55.4 °F - 46.4 °F 72% 29.71 in 4.0 mi SSE 4.6 mph - N/A   Haze
5:13 PM 55.4 °F - 46.4 °F 72% 29.71 in 5.0 mi SE 6.9 mph - N/A   Haze
5:53 PM 55.4 °F - 46.4 °F 72% 29.71 in 5.0 mi SSE 3.5 mph - N/A   Haze
6:13 PM 57.2 °F - 46.4 °F 67% 29.71 in 5.0 mi ESE 5.8 mph - N/A   Haze
6:33 PM 57.2 °F - 46.4 °F 67% 29.70 in 5.0 mi ESE 8.1 mph - N/A   Haze
7:14 PM 53.6 °F - 46.4 °F 77% 29.70 in 5.0 mi ESE 6.9 mph - N/A   Haze
7:33 PM 51.8 °F - 46.4 °F 82% 29.70 in 5.0 mi ESE 5.8 mph - N/A   Haze
7:53 PM 50.0 °F - 46.4 °F 87% 29.71 in 4.0 mi ESE 5.8 mph - N/A   Clear
8:13 PM 48.2 °F - 44.6 °F 87% 29.71 in 4.0 mi ESE 5.8 mph - N/A   Clear
8:33 PM 46.4 °F 44.3 °F 44.6 °F 93% 29.72 in 4.0 mi East 4.6 mph - N/A   Clear
8:53 PM 46.4 °F 44.3 °F 42.8 °F 87% 29.72 in 3.0 mi ESE 4.6 mph - N/A   Clear
9:14 PM 46.4 °F 43.5 °F 42.8 °F 87% 29.72 in 2.5 mi ESE 5.8 mph - N/A   Scattered Clouds
9:33 PM 46.4 °F 42.9 °F 44.6 °F 93% 29.72 in 2.5 mi East 6.9 mph - N/A   Mostly Cloudy
9:53 PM 48.2 °F - 46.4 °F 93% 29.72 in 2.5 mi ESE 8.1 mph - N/A   Mostly Cloudy
10:14 PM 48.2 °F - 46.4 °F 93% 29.72 in 2.0 mi ESE 4.6 mph - N/A   Overcast
10:33 PM 46.4 °F 43.5 °F 44.6 °F 93% 29.72 in 1.5 mi East 5.8 mph - N/A   Mostly Cloudy
10:53 PM 46.4 °F 42.9 °F 42.8 °F 87% 29.71 in 1.2 mi East 6.9 mph - N/A   Clear
11:13 PM 44.6 °F 41.4 °F 42.8 °F 93% 29.71 in 0.8 mi ESE 5.8 mph - N/A   Mist
11:33 PM 46.4 °F 42.4 °F 44.6 °F 93% 29.71 in 0.8 mi ESE 8.1 mph - N/A   Overcast
11:54 PM 48.2 °F - 44.6 °F 87% 29.71 in 0.2 mi SE 8.1 mph - N/A Fog Fog